| time (UTC) | temp F | wind direction | speed MPH | gust MPH | rain 1hr in | rain 24hr in | rain mn in | humidity % | barometer mb |
| 20260903125002 | 71 | 127 | 0.0 | 3.0 | 0.00 | 0.00 | 0.00 | 100 | 1006.2 |
| 20260903124503 | 70 | 109 | 1.0 | 3.0 | 0.00 | 0.00 | 0.00 | 100 | 1006.0 |
| 20260903124002 | 70 | 97 | 0.0 | 4.0 | 0.00 | 0.00 | 0.00 | 100 | 1006.0 |
| 20260903123503 | 70 | 97 | 2.0 | 4.0 | 0.00 | 0.00 | 0.00 | 100 | 1006.0 |
| 20260903123002 | 70 | 97 | 2.0 | 4.0 | 0.00 | 0.00 | 0.00 | 100 | 1006.0 |
| 20260903122503 | 70 | 97 | 1.0 | 4.0 | 0.00 | 0.00 | 0.00 | 100 | 1006.0 |
| 20260903122003 | 70 | 98 | 0.0 | 4.0 | 0.00 | 0.00 | 0.00 | 100 | 1006.0 |
| 20260903121503 | 70 | 97 | 2.0 | 4.0 | 0.00 | 0.00 | 0.00 | 100 | 1006.0 |
| 20260903121003 | 70 | 97 | 1.0 | 3.0 | 0.00 | 0.00 | 0.00 | 100 | 1006.1 |
| 20260903120503 | 70 | 97 | 2.0 | 3.0 | 0.00 | 0.00 | 0.00 | 100 | 1005.9 |
| 20260903120003 | 70 | 97 | 1.0 | 3.0 | 0.00 | 0.00 | 0.00 | 100 | 1006.2 |
| 20260903115503 | 70 | 97 | 1.0 | 3.0 | 0.00 | 0.00 | 0.00 | 100 | 1006.1 |
| 20260903115003 | 70 | 98 | 1.0 | 2.0 | 0.00 | 0.00 | 0.00 | 100 | 1006.2 |
| 20260903114502 | 70 | 97 | 1.0 | 2.0 | 0.00 | 0.00 | 0.00 | 100 | 1006.3 |
| 20260903114003 | 71 | 98 | 0.0 | 2.0 | 0.00 | 0.00 | 0.00 | 100 | 1006.4 |
| 20260903113502 | 71 | 98 | 0.0 | 3.0 | 0.00 | 0.00 | 0.00 | 100 | 1006.4 |
| 20260903113003 | 71 | 98 | 0.0 | 4.0 | 0.00 | 0.00 | 0.00 | 100 | 1006.5 |
| 20260903112502 | 70 | 97 | 2.0 | 4.0 | 0.00 | 0.00 | 0.00 | 100 | 1006.3 |
| 20260903112003 | 70 | 98 | 2.0 | 4.0 | 0.00 | 0.00 | 0.00 | 100 | 1006.0 |
| 20260903111503 | 70 | 98 | 1.0 | 2.0 | 0.00 | 0.00 | 0.00 | 100 | 1006.2 |
| 20260903111003 | 71 | 98 | 0.0 | 1.0 | 0.00 | 0.00 | 0.00 | 100 | 1006.3 |
| 20260903110503 | 71 | 98 | 0.0 | 0.0 | 0.00 | 0.00 | 0.00 | 100 | 1006.5 |
| 20260903110003 | 71 | 98 | 0.0 | 0.0 | 0.00 | 0.00 | 0.00 | 100 | 1006.4 |
| 20260903105503 | 71 | 98 | 0.0 | 0.0 | 0.00 | 0.00 | 0.00 | 100 | 1006.4 |
| 20260903105003 | 71 | 98 | 0.0 | 2.0 | 0.00 | 0.00 | 0.00 | 100 | 1006.3 |
| 20260903104503 | 71 | 98 | 0.0 | 4.0 | 0.00 | 0.00 | 0.00 | 100 | 1006.2 |
| 20260903104004 | 71 | 98 | 1.0 | 4.0 | 0.00 | 0.00 | 0.00 | 100 | 1006.2 |
| 20260903103503 | 71 | 98 | 1.0 | 3.0 | 0.00 | 0.00 | 0.00 | 100 | 1006.3 |
| 20260903103002 | 71 | 98 | 1.0 | 4.0 | 0.00 | 0.00 | 0.00 | 100 | 1006.3 |
| 20260903102503 | 71 | 98 | 2.0 | 4.0 | 0.00 | 0.00 | 0.00 | 100 | 1006.3 |
| 20260903102002 | 71 | 98 | 0.0 | 3.0 | 0.00 | 0.00 | 0.00 | 100 | 1006.3 |
| 20260903101503 | 71 | 85 | 0.0 | 3.0 | 0.00 | 0.00 | 0.00 | 100 | 1006.4 |
| 20260903101003 | 71 | 85 | 1.0 | 3.0 | 0.00 | 0.00 | 0.00 | 100 | 1006.3 |
| 20260903100503 | 71 | 85 | 1.0 | 4.0 | 0.00 | 0.00 | 0.00 | 100 | 1006.4 |
| 20260903100002 | 71 | 85 | 1.0 | 4.0 | 0.00 | 0.00 | 0.00 | 100 | 1006.4 |
| 20260903095503 | 71 | 85 | 1.0 | 2.0 | 0.00 | 0.00 | 0.00 | 100 | 1006.5 |
| 20260903095003 | 71 | 85 | 0.0 | 0.0 | 0.00 | 0.00 | 0.00 | 100 | 1006.5 |
| 20260903094503 | 71 | 85 | 0.0 | 0.0 | 0.00 | 0.00 | 0.00 | 100 | 1006.6 |
| 20260903094003 | 71 | 85 | 0.0 | 0.0 | 0.00 | 0.00 | 0.00 | 100 | 1006.5 |
| 20260903093503 | 71 | 85 | 0.0 | 1.0 | 0.00 | 0.00 | 0.00 | 100 | 1006.6 |
| 20260903093003 | 71 | 85 | 0.0 | 1.0 | 0.00 | 0.00 | 0.00 | 100 | 1006.5 |
| 20260903092502 | 71 | 85 | 0.0 | 1.0 | 0.00 | 0.00 | 0.00 | 100 | 1006.6 |
| 20260903092003 | 71 | 85 | 0.0 | 1.0 | 0.00 | 0.00 | 0.00 | 100 | 1006.6 |
| 20260903091503 | 71 | 85 | 0.0 | 1.0 | 0.00 | 0.00 | 0.00 | 100 | 1006.6 |
| 20260903091003 | 71 | 85 | 0.0 | 1.0 | 0.00 | 0.00 | 0.00 | 100 | 1006.6 |
| 20260903090503 | 71 | 85 | 0.0 | 0.0 | 0.00 | 0.00 | 0.00 | 100 | 1006.6 |
| 20260903090003 | 71 | 85 | 0.0 | 0.0 | 0.00 | 0.00 | 0.00 | 100 | 1006.7 |
| 20260903085503 | 71 | 85 | 0.0 | 1.0 | 0.00 | 0.00 | 0.00 | 100 | 1006.8 |
| 20260903085004 | 71 | 85 | 0.0 | 1.0 | 0.00 | 0.00 | 0.00 | 100 | 1006.8 |
| 20260903084503 | 71 | 85 | 0.0 | 0.0 | 0.00 | 0.00 | 0.00 | 100 | 1006.8 |
| 20260903084002 | 71 | 85 | 0.0 | 0.0 | 0.00 | 0.00 | 0.00 | 100 | 1006.8 |
| 20260903083503 | 71 | 85 | 0.0 | 1.0 | 0.00 | 0.00 | 0.00 | 100 | 1006.8 |
| 20260903083002 | 71 | 85 | 0.0 | 1.0 | 0.00 | 0.00 | 0.00 | 100 | 1006.8 |
| 20260903082503 | 71 | 85 | 0.0 | 0.0 | 0.00 | 0.00 | 0.00 | 100 | 1006.8 |
| 20260903082003 | 72 | 85 | 0.0 | 2.0 | 0.00 | 0.00 | 0.00 | 100 | 1006.8 |
| 20260903081503 | 72 | 85 | 0.0 | 2.0 | 0.00 | 0.00 | 0.00 | 100 | 1006.8 |
| 20260903081003 | 72 | 85 | 0.0 | 3.0 | 0.00 | 0.00 | 0.00 | 100 | 1006.8 |
| 20260903080503 | 72 | 85 | 1.0 | 3.0 | 0.00 | 0.00 | 0.00 | 100 | 1007.0 |
| 20260903080003 | 72 | 85 | 1.0 | 4.0 | 0.00 | 0.00 | 0.00 | 100 | 1006.8 |
| 20260903075503 | 71 | 85 | 2.0 | 6.0 | 0.00 | 0.00 | 0.00 | 100 | 1007.0 |
| 20260903075003 | 71 | 85 | 3.0 | 6.0 | 0.00 | 0.00 | 0.00 | 100 | 1006.9 |
| 20260903074503 | 71 | 86 | 3.0 | 5.0 | 0.00 | 0.00 | 0.00 | 100 | 1006.8 |
| 20260903074003 | 71 | 93 | 4.0 | 5.0 | 0.00 | 0.00 | 0.00 | 100 | 1006.9 |
| 20260903073503 | 71 | 91 | 3.0 | 5.0 | 0.00 | 0.00 | 0.00 | 100 | 1007.1 |
| 20260903073003 | 71 | 90 | 3.0 | 5.0 | 0.00 | 0.00 | 0.00 | 100 | 1007.1 |
| 20260903072502 | 71 | 90 | 2.0 | 3.0 | 0.00 | 0.00 | 0.00 | 100 | 1007.3 |
| 20260903072003 | 71 | 90 | 1.0 | 2.0 | 0.00 | 0.00 | 0.00 | 100 | 1007.4 |
| 20260903071503 | 71 | 90 | 0.0 | 1.0 | 0.00 | 0.00 | 0.00 | 100 | 1007.6 |
| 20260903071003 | 71 | 90 | 0.0 | 3.0 | 0.00 | 0.00 | 0.00 | 100 | 1007.6 |
| 20260903070503 | 71 | 90 | 1.0 | 3.0 | 0.00 | 0.00 | 0.00 | 100 | 1007.7 |
| 20260903070003 | 71 | 90 | 0.0 | 2.0 | 0.00 | 0.00 | 0.00 | 100 | 1007.7 |
| 20260903065503 | 71 | 90 | 0.0 | 1.0 | 0.00 | 0.00 | 0.00 | 100 | 1007.8 |
| 20260903065003 | 71 | 90 | 0.0 | 1.0 | 0.00 | 0.00 | 0.00 | 100 | 1007.9 |
| 20260903064503 | 72 | 90 | 0.0 | 1.0 | 0.00 | 0.00 | 0.00 | 100 | 1007.8 |
| 20260903064003 | 72 | 90 | 0.0 | 1.0 | 0.00 | 0.00 | 0.00 | 100 | 1007.8 |
| 20260903063503 | 72 | 90 | 0.0 | 2.0 | 0.00 | 0.00 | 0.00 | 100 | 1007.8 |
| 20260903063002 | 72 | 90 | 0.0 | 2.0 | 0.00 | 0.00 | 0.00 | 100 | 1007.8 |
| 20260903062503 | 72 | 90 | 1.0 | 3.0 | 0.00 | 0.00 | 0.00 | 100 | 1007.8 |
| 20260903062002 | 72 | 90 | 1.0 | 5.0 | 0.00 | 0.00 | 0.00 | 100 | 1007.8 |
| 20260903061503 | 72 | 90 | 2.0 | 5.0 | 0.00 | 0.00 | 0.00 | 100 | 1007.7 |
| 20260903061002 | 72 | 90 | 3.0 | 4.0 | 0.00 | 0.00 | 0.00 | 100 | 1007.8 |
| 20260903060503 | 72 | 90 | 2.0 | 4.0 | 0.00 | 0.00 | 0.00 | 100 | 1007.8 |
| 20260903060002 | 72 | 90 | 2.0 | 4.0 | 0.00 | 0.00 | 0.00 | 100 | 1007.8 |
| 20260903055503 | 72 | 90 | 2.0 | 3.0 | 0.00 | 0.00 | 0.00 | 100 | 1007.9 |
| 20260903055003 | 72 | 90 | 1.0 | 4.0 | 0.00 | 0.00 | 0.00 | 100 | 1007.9 |
| 20260903054503 | 72 | 90 | 1.0 | 4.0 | 0.00 | 0.00 | 0.00 | 100 | 1007.9 |
| 20260903054003 | 73 | 90 | 0.0 | 1.0 | 0.00 | 0.00 | 0.00 | 100 | 1008.0 |
| 20260903053503 | 73 | 90 | 0.0 | 2.0 | 0.00 | 0.00 | 0.00 | 100 | 1008.2 |
| 20260903053003 | 73 | 90 | 1.0 | 3.0 | 0.00 | 0.00 | 0.00 | 100 | 1008.2 |
| 20260903052503 | 73 | 90 | 1.0 | 3.0 | 0.00 | 0.00 | 0.00 | 100 | 1008.2 |
| 20260903052003 | 73 | 90 | 1.0 | 3.0 | 0.00 | 0.00 | 0.00 | 100 | 1008.2 |
| 20260903051502 | 73 | 90 | 2.0 | 4.0 | 0.00 | 0.00 | 0.00 | 100 | 1008.2 |
| 20260903051003 | 73 | 90 | 2.0 | 4.0 | 0.00 | 0.00 | 0.00 | 100 | 1008.2 |
| 20260903050503 | 73 | 90 | 1.0 | 2.0 | 0.00 | 0.00 | 0.00 | 100 | 1008.3 |
| 20260903050003 | 73 | 90 | 1.0 | 2.0 | 0.00 | 0.00 | 0.00 | 100 | 1008.4 |
| 20260903045502 | 73 | 90 | 0.0 | 1.0 | 0.00 | 0.00 | 0.00 | 100 | 1008.4 |
| 20260903045003 | 73 | 90 | 0.0 | 2.0 | 0.00 | 0.00 | 0.00 | 100 | 1008.4 |
| 20260903044503 | 73 | 90 | 0.0 | 2.0 | 0.00 | 0.00 | 0.00 | 100 | 1008.5 |
| 20260903044003 | 73 | 90 | 1.0 | 2.0 | 0.00 | 0.00 | 0.00 | 100 | 1008.5 |
| 20260903043503 | 73 | 90 | 0.0 | 1.0 | 0.00 | 0.00 | 0.00 | 100 | 1008.5 |
| 20260903043003 | 73 | 90 | 0.0 | 1.0 | 0.00 | 0.00 | 0.00 | 99 | 1008.6 |
| 20260903042503 | 73 | 90 | 0.0 | 1.0 | 0.00 | 0.00 | 0.00 | 99 | 1008.6 |
| 20260903042003 | 74 | 90 | 0.0 | 0.0 | 0.00 | 0.00 | 0.00 | 99 | 1008.5 |
| 20260903041503 | 74 | 90 | 0.0 | 1.0 | 0.00 | 0.00 | 0.00 | 98 | 1008.6 |
| 20260903041003 | 74 | 90 | 0.0 | 1.0 | 0.00 | 0.00 | 0.00 | 98 | 1008.7 |
| 20260903040503 | 74 | 90 | 0.0 | 1.0 | 0.00 | 0.00 | 0.00 | 97 | 1008.6 |
| 20260903040002 | 74 | 90 | 0.0 | 0.0 | 0.00 | 0.00 | 0.00 | 97 | 1008.7 |
| 20260903035503 | 75 | 90 | 0.0 | 3.0 | 0.00 | 0.00 | 0.00 | 96 | 1008.7 |
| 20260903035002 | 75 | 90 | 0.0 | 3.0 | 0.00 | 0.00 | 0.00 | 96 | 1008.5 |
| 20260903034503 | 75 | 90 | 1.0 | 3.0 | 0.00 | 0.00 | 0.00 | 96 | 1008.4 |
| 20260903034002 | 75 | 90 | 0.0 | 1.0 | 0.00 | 0.00 | 0.00 | 95 | 1008.5 |
| 20260903033503 | 76 | 90 | 0.0 | 3.0 | 0.00 | 0.00 | 0.00 | 95 | 1008.5 |
| 20260903033003 | 76 | 90 | 1.0 | 3.0 | 0.00 | 0.00 | 0.00 | 94 | 1008.5 |
| 20260903032503 | 76 | 90 | 2.0 | 3.0 | 0.00 | 0.00 | 0.00 | 94 | 1008.5 |
| 20260903032003 | 76 | 90 | 0.0 | 4.0 | 0.00 | 0.00 | 0.00 | 94 | 1008.6 |
| 20260903031503 | 76 | 90 | 1.0 | 4.0 | 0.00 | 0.00 | 0.00 | 94 | 1008.5 |
| 20260903031003 | 77 | 90 | 2.0 | 4.0 | 0.00 | 0.00 | 0.00 | 94 | 1008.4 |
| 20260903030502 | 77 | 90 | 0.0 | 2.0 | 0.00 | 0.00 | 0.00 | 92 | 1008.6 |
| 20260903030003 | 77 | 90 | 1.0 | 2.0 | 0.00 | 0.00 | 0.00 | 92 | 1008.7 |
| 20260903025502 | 78 | 90 | 0.0 | 2.0 | 0.00 | 0.00 | 0.00 | 91 | 1008.8 |
| 20260903025003 | 78 | 90 | 0.0 | 2.0 | 0.00 | 0.00 | 0.00 | 91 | 1008.7 |
| 20260903024503 | 78 | 90 | 1.0 | 2.0 | 0.00 | 0.00 | 0.00 | 91 | 1008.8 |
| 20260903024003 | 78 | 90 | 0.0 | 3.0 | 0.00 | 0.00 | 0.00 | 91 | 1008.8 |
| 20260903023503 | 78 | 90 | 0.0 | 3.0 | 0.00 | 0.00 | 0.00 | 90 | 1008.8 |
| 20260903023003 | 78 | 90 | 1.0 | 4.0 | 0.00 | 0.00 | 0.00 | 90 | 1008.8 |
| 20260903022503 | 79 | 90 | 1.0 | 4.0 | 0.00 | 0.00 | 0.00 | 90 | 1008.8 |
| 20260903022002 | 79 | 90 | 2.0 | 4.0 | 0.00 | 0.00 | 0.00 | 89 | 1008.8 |
| 20260903021503 | 79 | 90 | 2.0 | 3.0 | 0.00 | 0.00 | 0.00 | 89 | 1008.7 |
| 20260903021003 | 79 | 90 | 1.0 | 2.0 | 0.00 | 0.01 | 0.00 | 88 | 1008.7 |
| 20260903020503 | 80 | 90 | 1.0 | 2.0 | 0.00 | 0.01 | 0.00 | 87 | 1008.6 |
| 20260903020003 | 80 | 90 | 2.0 | 4.0 | 0.00 | 0.01 | 0.00 | 86 | 1008.5 |
| 20260903015503 | 80 | 90 | 2.0 | 4.0 | 0.00 | 0.01 | 0.00 | 86 | 1008.5 |
| 20260903015003 | 80 | 90 | 2.0 | 4.0 | 0.00 | 0.01 | 0.00 | 85 | 1008.5 |
| 20260903014503 | 80 | 90 | 2.0 | 4.0 | 0.00 | 0.02 | 0.00 | 85 | 1008.3 |
| 20260903014003 | 81 | 90 | 2.0 | 4.0 | 0.00 | 0.02 | 0.00 | 84 | 1008.3 |
| 20260903013503 | 81 | 90 | 1.0 | 4.0 | 0.00 | 0.02 | 0.00 | 84 | 1008.3 |
| 20260903013003 | 81 | 90 | 2.0 | 4.0 | 0.00 | 0.02 | 0.00 | 84 | 1008.2 |
| 20260903012503 | 81 | 90 | 2.0 | 3.0 | 0.00 | 0.02 | 0.00 | 83 | 1008.1 |
| 20260903012003 | 81 | 90 | 1.0 | 3.0 | 0.00 | 0.02 | 0.00 | 83 | 1008.0 |
| 20260903011502 | 82 | 90 | 1.0 | 3.0 | 0.00 | 0.02 | 0.00 | 82 | 1008.0 |
| 20260903011003 | 82 | 90 | 0.0 | 2.0 | 0.00 | 0.02 | 0.00 | 81 | 1008.0 |
| 20260903010502 | 82 | 90 | 1.0 | 4.0 | 0.00 | 0.02 | 0.00 | 81 | 1008.1 |
| 20260903010003 | 82 | 90 | 2.0 | 5.0 | 0.00 | 0.02 | 0.00 | 80 | 1008.0 |
| 20260903005503 | 83 | 90 | 1.0 | 5.0 | 0.00 | 0.02 | 0.00 | 80 | 1007.9 |
| 20260903005003 | 83 | 93 | 2.0 | 4.0 | 0.00 | 0.02 | 0.00 | 79 | 1008.0 |
| 20260903004503 | 83 | 88 | 2.0 | 4.0 | 0.00 | 0.02 | 0.00 | 79 | 1008.0 |
| 20260903004003 | 84 | 88 | 0.0 | 4.0 | 0.00 | 0.02 | 0.00 | 78 | 1008.0 |
| 20260903003503 | 84 | 88 | 2.0 | 4.0 | 0.00 | 0.02 | 0.00 | 77 | 1008.0 |
| 20260903003003 | 84 | 88 | 1.0 | 4.0 | 0.00 | 0.02 | 0.00 | 76 | 1007.9 |
| 20260903002503 | 85 | 88 | 2.0 | 4.0 | 0.00 | 0.02 | 0.00 | 76 | 1008.1 |
| 20260903002003 | 85 | 88 | 2.0 | 4.0 | 0.00 | 0.02 | 0.00 | 75 | 1007.8 |
| 20260903001503 | 85 | 88 | 2.0 | 4.0 | 0.00 | 0.02 | 0.00 | 75 | 1007.9 |
| 20260903001002 | 85 | 96 | 2.0 | 4.0 | 0.00 | 0.02 | 0.00 | 74 | 1007.8 |
| 20260903000503 | 86 | 110 | 1.0 | 4.0 | 0.00 | 0.02 | 0.00 | 74 | 1008.0 |
| 20260903000002 | 86 | 98 | 1.0 | 4.0 | 0.00 | 0.02 | 0.00 | 73 | 1008.0 |
| 20260902235503 | 86 | 133 | 1.0 | 5.0 | 0.00 | 0.02 | 0.00 | 72 | 1008.0 |
| 20260902235002 | 86 | 134 | 2.0 | 5.0 | 0.00 | 0.02 | 0.00 | 72 | 1007.9 |
| 20260902234503 | 86 | 94 | 1.0 | 5.0 | 0.00 | 0.02 | 0.00 | 72 | 1008.0 |
| 20260902234003 | 87 | 101 | 2.0 | 7.0 | 0.00 | 0.02 | 0.00 | 71 | 1008.0 |
| 20260902233503 | 87 | 113 | 2.0 | 7.0 | 0.00 | 0.02 | 0.00 | 70 | 1008.0 |
| 20260902233003 | 87 | 149 | 1.0 | 5.0 | 0.00 | 0.02 | 0.00 | 71 | 1008.0 |
| 20260902232503 | 87 | 85 | 3.0 | 6.0 | 0.00 | 0.02 | 0.00 | 70 | 1007.9 |
| 20260902232003 | 87 | 83 | 4.0 | 6.0 | 0.00 | 0.02 | 0.00 | 70 | 1007.9 |
| 20260902231504 | 87 | 178 | 1.0 | 7.0 | 0.00 | 0.02 | 0.00 | 69 | 1008.1 |
| 20260902231003 | 87 | 117 | 2.0 | 7.0 | 0.00 | 0.02 | 0.00 | 68 | 1008.0 |
| 20260902230502 | 87 | 145 | 2.0 | 6.0 | 0.00 | 0.02 | 0.00 | 68 | 1008.1 |
| 20260902230003 | 87 | 144 | 2.0 | 7.0 | 0.00 | 0.02 | 0.00 | 69 | 1008.1 |
| 20260902225503 | 87 | 103 | 2.0 | 7.0 | 0.00 | 0.02 | 0.00 | 68 | 1008.1 |
| 20260902225003 | 87 | 131 | 1.0 | 7.0 | 0.00 | 0.02 | 0.00 | 69 | 1008.1 |
| 20260902224502 | 87 | 91 | 4.0 | 7.0 | 0.00 | 0.02 | 0.00 | 68 | 1008.1 |
| 20260902224003 | 88 | 199 | 1.0 | 5.0 | 0.00 | 0.02 | 0.00 | 68 | 1008.1 |
| 20260902223503 | 88 | 119 | 2.0 | 6.0 | 0.00 | 0.02 | 0.00 | 67 | 1008.0 |
| 20260902223003 | 88 | 117 | 2.0 | 6.0 | 0.00 | 0.02 | 0.00 | 67 | 1008.1 |
| 20260902222503 | 88 | 172 | 2.0 | 8.0 | 0.00 | 0.02 | 0.00 | 67 | 1008.0 |
| 20260902222004 | 88 | 109 | 3.0 | 8.0 | 0.00 | 0.02 | 0.00 | 67 | 1008.1 |
| 20260902221503 | 88 | 130 | 2.0 | 10.0 | 0.00 | 0.02 | 0.00 | 67 | 1008.1 |
| 20260902221003 | 88 | 103 | 4.0 | 10.0 | 0.00 | 0.02 | 0.00 | 67 | 1008.0 |
| 20260902220503 | 88 | 114 | 2.0 | 10.0 | 0.00 | 0.02 | 0.00 | 67 | 1008.0 |
| 20260902220002 | 89 | 115 | 3.0 | 10.0 | 0.00 | 0.02 | 0.00 | 66 | 1008.0 |
| 20260902215503 | 89 | 83 | 5.0 | 8.0 | 0.00 | 0.02 | 0.00 | 66 | 1008.0 |
| 20260902215002 | 89 | 85 | 3.0 | 7.0 | 0.00 | 0.02 | 0.00 | 66 | 1008.0 |
| 20260902214503 | 89 | 91 | 2.0 | 7.0 | 0.00 | 0.02 | 0.00 | 65 | 1008.1 |
| 20260902214002 | 89 | 137 | 2.0 | 11.0 | 0.00 | 0.02 | 0.00 | 65 | 1008.1 |
| 20260902213503 | 89 | 89 | 6.0 | 11.0 | 0.00 | 0.02 | 0.00 | 64 | 1008.1 |
| 20260902213002 | 89 | 89 | 3.0 | 8.0 | 0.00 | 0.02 | 0.00 | 65 | 1008.2 |
| 20260902212503 | 89 | 109 | 2.0 | 7.0 | 0.00 | 0.02 | 0.00 | 66 | 1008.2 |
| 20260902212002 | 89 | 111 | 4.0 | 7.0 | 0.00 | 0.02 | 0.00 | 65 | 1008.2 |
| 20260902211503 | 89 | 154 | 2.0 | 8.0 | 0.00 | 0.02 | 0.00 | 66 | 1008.1 |
| 20260902211002 | 88 | 95 | 4.0 | 8.0 | 0.00 | 0.02 | 0.00 | 65 | 1008.2 |
| 20260902210503 | 88 | 164 | 2.0 | 8.0 | 0.00 | 0.02 | 0.00 | 66 | 1008.3 |
| 20260902210002 | 88 | 94 | 4.0 | 10.0 | 0.00 | 0.02 | 0.00 | 65 | 1008.4 |
| 20260902205503 | 88 | 96 | 6.0 | 10.0 | 0.00 | 0.02 | 0.00 | 66 | 1008.4 |
| 20260902205002 | 88 | 96 | 5.0 | 10.0 | 0.00 | 0.02 | 0.00 | 66 | 1008.5 |
| 20260902204503 | 88 | 92 | 5.0 | 10.0 | 0.00 | 0.02 | 0.00 | 66 | 1008.5 |
| 20260902204003 | 88 | 134 | 1.0 | 6.0 | 0.00 | 0.02 | 0.00 | 66 | 1008.5 |
| 20260902203503 | 88 | 92 | 1.0 | 8.0 | 0.00 | 0.02 | 0.00 | 69 | 1008.5 |
| 20260902203003 | 87 | 100 | 4.0 | 8.0 | 0.00 | 0.02 | 0.00 | 67 | 1008.6 |
| 20260902202503 | 87 | 96 | 4.0 | 10.0 | 0.00 | 0.02 | 0.00 | 68 | 1008.7 |
| 20260902202002 | 87 | 97 | 6.0 | 10.0 | 0.00 | 0.02 | 0.00 | 68 | 1008.6 |
| 20260902201503 | 87 | 111 | 5.0 | 10.0 | 0.00 | 0.02 | 0.00 | 69 | 1008.6 |
| 20260902201003 | 87 | 140 | 2.0 | 11.0 | 0.00 | 0.02 | 0.00 | 70 | 1008.7 |
| 20260902200503 | 87 | 93 | 4.0 | 11.0 | 0.00 | 0.02 | 0.00 | 70 | 1008.6 |
| 20260902200003 | 87 | 87 | 4.0 | 11.0 | 0.00 | 0.02 | 0.00 | 70 | 1008.7 |
| 20260902195502 | 87 | 98 | 7.0 | 11.0 | 0.00 | 0.02 | 0.00 | 69 | 1008.7 |
| 20260902195003 | 86 | 98 | 4.0 | 13.0 | 0.00 | 0.02 | 0.00 | 72 | 1008.9 |
| 20260902194502 | 86 | 94 | 7.0 | 13.0 | 0.00 | 0.02 | 0.00 | 71 | 1009.0 |
| 20260902194003 | 86 | 98 | 6.0 | 10.0 | 0.00 | 0.02 | 0.00 | 72 | 1008.9 |
| 20260902193502 | 86 | 83 | 5.0 | 10.0 | 0.00 | 0.02 | 0.00 | 73 | 1008.9 |
| 20260902193003 | 86 | 100 | 4.0 | 9.0 | 0.00 | 0.02 | 0.00 | 74 | 1009.0 |
| 20260902192503 | 86 | 67 | 4.0 | 11.0 | 0.00 | 0.02 | 0.00 | 74 | 1008.9 |
| 20260902192004 | 86 | 82 | 7.0 | 11.0 | 0.00 | 0.02 | 0.00 | 73 | 1009.1 |
| 20260902191503 | 86 | 88 | 3.0 | 11.0 | 0.00 | 0.02 | 0.00 | 73 | 1009.1 |
| 20260902191002 | 86 | 99 | 7.0 | 11.0 | 0.00 | 0.02 | 0.00 | 73 | 1009.2 |
| 20260902190503 | 85 | 225 | 1.0 | 9.0 | 0.00 | 0.02 | 0.00 | 74 | 1009.4 |
| 20260902190002 | 85 | 104 | 4.0 | 9.0 | 0.00 | 0.02 | 0.00 | 73 | 1009.6 |
| 20260902185503 | 85 | 83 | 5.0 | 9.0 | 0.00 | 0.02 | 0.00 | 73 | 1009.5 |
| 20260902185002 | 85 | 104 | 5.0 | 9.0 | 0.00 | 0.02 | 0.00 | 72 | 1009.5 |
| 20260902184503 | 85 | 93 | 5.0 | 9.0 | 0.00 | 0.02 | 0.00 | 72 | 1009.6 |
| 20260902184003 | 85 | 189 | 2.0 | 8.0 | 0.00 | 0.02 | 0.00 | 74 | 1009.7 |
| 20260902183503 | 85 | 145 | 2.0 | 8.0 | 0.00 | 0.02 | 0.00 | 73 | 1009.8 |
| 20260902183003 | 85 | 96 | 3.0 | 7.0 | 0.00 | 0.02 | 0.00 | 73 | 1009.7 |
| 20260902182503 | 84 | 121 | 2.0 | 7.0 | 0.00 | 0.02 | 0.00 | 73 | 1009.8 |
| 20260902182003 | 84 | 133 | 3.0 | 8.0 | 0.00 | 0.02 | 0.00 | 72 | 1009.9 |
| 20260902181503 | 84 | 167 | 3.0 | 10.0 | 0.00 | 0.02 | 0.00 | 72 | 1009.8 |
| 20260902181003 | 84 | 99 | 5.0 | 10.0 | 0.00 | 0.02 | 0.00 | 73 | 1009.8 |
| 20260902180502 | 84 | 117 | 3.0 | 8.0 | 0.00 | 0.02 | 0.00 | 73 | 1009.9 |
| 20260902180005 | 84 | 129 | 3.0 | 8.0 | 0.00 | 0.02 | 0.00 | 73 | 1010.1 |
| 20260902175502 | 83 | 93 | 3.0 | 10.0 | 0.00 | 0.02 | 0.00 | 73 | 1010.0 |
| 20260902175003 | 83 | 93 | 4.0 | 10.0 | 0.00 | 0.02 | 0.00 | 74 | 1010.1 |
| 20260902174502 | 83 | 101 | 3.0 | 11.0 | 0.00 | 0.02 | 0.00 | 74 | 1010.2 |
| 20260902174003 | 83 | 86 | 7.0 | 11.0 | 0.00 | 0.02 | 0.00 | 73 | 1010.0 |
| 20260902173503 | 82 | 110 | 2.0 | 9.0 | 0.00 | 0.02 | 0.00 | 75 | 1010.0 |
| 20260902173003 | 82 | 96 | 4.0 | 9.0 | 0.00 | 0.02 | 0.00 | 75 | 1010.2 |
| 20260902172503 | 82 | 87 | 6.0 | 8.0 | 0.00 | 0.02 | 0.00 | 76 | 1010.2 |
| 20260902172002 | 81 | 83 | 4.0 | 10.0 | 0.00 | 0.02 | 0.00 | 76 | 1010.3 |
| 20260902171503 | 81 | 89 | 6.0 | 10.0 | 0.00 | 0.02 | 0.00 | 75 | 1010.3 |
| 20260902171002 | 81 | 79 | 5.0 | 8.0 | 0.00 | 0.02 | 0.00 | 76 | 1010.3 |
| 20260902170503 | 80 | 97 | 6.0 | 9.0 | 0.00 | 0.02 | 0.00 | 75 | 1010.4 |
| 20260902170003 | 80 | 90 | 4.0 | 9.0 | 0.00 | 0.02 | 0.00 | 76 | 1010.5 |
| 20260902165503 | 80 | 68 | 4.0 | 8.0 | 0.00 | 0.02 | 0.00 | 77 | 1010.5 |
| 20260902165003 | 80 | 105 | 3.0 | 8.0 | 0.00 | 0.02 | 0.00 | 77 | 1010.5 |
| 20260902164503 | 79 | 115 | 3.0 | 8.0 | 0.00 | 0.02 | 0.00 | 79 | 1010.5 |
| 20260902164002 | 79 | 91 | 6.0 | 8.0 | 0.00 | 0.02 | 0.00 | 79 | 1010.6 |
| 20260902163503 | 79 | 101 | 4.0 | 8.0 | 0.00 | 0.02 | 0.00 | 80 | 1010.6 |
| 20260902163003 | 79 | 132 | 2.0 | 9.0 | 0.00 | 0.02 | 0.00 | 81 | 1010.7 |
| 20260902162504 | 78 | 101 | 4.0 | 9.0 | 0.00 | 0.02 | 0.00 | 82 | 1010.7 |
| 20260902162003 | 78 | 102 | 4.0 | 8.0 | 0.00 | 0.02 | 0.00 | 82 | 1010.8 |
| 20260902161503 | 77 | 50 | 2.0 | 9.0 | 0.00 | 0.02 | 0.00 | 84 | 1010.7 |
| 20260902161003 | 77 | 95 | 5.0 | 9.0 | 0.00 | 0.02 | 0.00 | 84 | 1010.7 |
| 20260902160503 | 76 | 98 | 3.0 | 8.0 | 0.00 | 0.02 | 0.00 | 86 | 1010.7 |
| 20260902160003 | 76 | 92 | 5.0 | 8.0 | 0.00 | 0.02 | 0.00 | 87 | 1010.9 |
| 20260902155502 | 75 | 103 | 3.0 | 8.0 | 0.00 | 0.02 | 0.00 | 88 | 1010.8 |
| 20260902155003 | 74 | 89 | 3.0 | 10.0 | 0.00 | 0.02 | 0.00 | 89 | 1010.7 |
| 20260902154503 | 74 | 91 | 6.0 | 10.0 | 0.00 | 0.02 | 0.00 | 89 | 1010.8 |
| 20260902154003 | 74 | 93 | 3.0 | 7.0 | 0.00 | 0.02 | 0.00 | 91 | 1010.8 |
| 20260902153503 | 73 | 98 | 4.0 | 8.0 | 0.00 | 0.02 | 0.00 | 91 | 1010.8 |
| 20260902153003 | 73 | 83 | 4.0 | 8.0 | 0.00 | 0.02 | 0.00 | 91 | 1010.8 |
| 20260902152503 | 73 | 93 | 3.0 | 7.0 | 0.00 | 0.02 | 0.00 | 93 | 1010.8 |
| 20260902152002 | 73 | 100 | 3.0 | 6.0 | 0.00 | 0.02 | 0.00 | 93 | 1010.7 |
| 20260902151503 | 72 | 144 | 1.0 | 5.0 | 0.00 | 0.02 | 0.00 | 94 | 1010.9 |
| 20260902151003 | 72 | 123 | 1.0 | 4.0 | 0.00 | 0.02 | 0.00 | 95 | 1010.9 |
| 20260902150503 | 71 | 146 | 1.0 | 6.0 | 0.00 | 0.02 | 0.00 | 96 | 1010.9 |
| 20260902150003 | 70 | 106 | 1.0 | 6.0 | 0.00 | 0.02 | 0.00 | 96 | 1011.0 |
| 20260902145503 | 70 | 120 | 3.0 | 6.0 | 0.00 | 0.02 | 0.00 | 97 | 1010.9 |
| 20260902145003 | 69 | 103 | 2.0 | 6.0 | 0.00 | 0.02 | 0.00 | 98 | 1010.7 |
| 20260902144503 | 68 | 85 | 3.0 | 6.0 | 0.00 | 0.02 | 0.00 | 98 | 1010.8 |
| 20260902144003 | 67 | 98 | 2.0 | 4.0 | 0.00 | 0.02 | 0.00 | 100 | 1010.8 |
| 20260902143504 | 66 | 98 | 1.0 | 3.0 | 0.00 | 0.02 | 0.00 | 100 | 1010.8 |
| 20260902143003 | 66 | 98 | 0.0 | 5.0 | 0.00 | 0.02 | 0.00 | 100 | 1011.1 |
| 20260902142503 | 65 | 98 | 3.0 | 5.0 | 0.00 | 0.02 | 0.00 | 100 | 1011.0 |
| 20260902142003 | 64 | 136 | 2.0 | 4.0 | 0.00 | 0.02 | 0.00 | 100 | 1011.0 |
| 20260902141502 | 64 | 149 | 1.0 | 5.0 | 0.00 | 0.02 | 0.00 | 100 | 1011.1 |
| 20260902141003 | 64 | 159 | 2.0 | 5.0 | 0.00 | 0.02 | 0.00 | 100 | 1011.6 |
| 20260902140502 | 64 | 170 | 1.0 | 5.0 | 0.00 | 0.02 | 0.00 | 100 | 1012.2 |
| 20260902140003 | 64 | 132 | 2.0 | 3.0 | 0.00 | 0.02 | 0.00 | 100 | 1012.1 |
| 20260902135502 | 65 | 41 | 1.0 | 3.0 | 0.00 | 0.02 | 0.00 | 100 | 1011.4 |
| 20260902135003 | 65 | 39 | 1.0 | 2.0 | 0.00 | 0.02 | 0.00 | 100 | 1011.0 |
| 20260902134503 | 65 | 39 | 0.0 | 3.0 | 0.00 | 0.02 | 0.00 | 100 | 1011.2 |
| 20260902134003 | 65 | 39 | 1.0 | 3.0 | 0.00 | 0.02 | 0.00 | 100 | 1011.3 |
| 20260902133503 | 65 | 39 | 0.0 | 2.0 | 0.00 | 0.02 | 0.00 | 100 | 1011.3 |
| 20260902133003 | 65 | 39 | 1.0 | 2.0 | 0.00 | 0.02 | 0.00 | 100 | 1011.5 |
| 20260902132503 | 65 | 39 | 0.0 | 2.0 | 0.00 | 0.02 | 0.00 | 100 | 1011.4 |
| 20260902132002 | 65 | 39 | 1.0 | 4.0 | 0.00 | 0.02 | 0.00 | 100 | 1011.4 |
| 20260902131503 | 64 | 39 | 1.0 | 4.0 | 0.00 | 0.02 | 0.00 | 100 | 1011.4 |
| 20260902131002 | 64 | 46 | 1.0 | 3.0 | 0.00 | 0.02 | 0.00 | 100 | 1011.4 |
| 20260902130503 | 63 | 49 | 1.0 | 3.0 | 0.00 | 0.02 | 0.00 | 100 | 1011.5 |
| 20260902130002 | 63 | 354 | 1.0 | 4.0 | 0.00 | 0.02 | 0.00 | 100 | 1011.6 |
| 20260902125503 | 63 | 351 | 1.0 | 4.0 | 0.00 | 0.02 | 0.00 | 100 | 1011.8 |